{"data":{"norad_id":62667,"epoch":"2026-09-19T10:59:27.940128Z","epoch_age_seconds":104447,"freshness":"FRESH","line1":"1 62667U 25009BL  26262.45796227  .00007409  00000+0  25056-3 0  9993","line2":"2 62667  97.3965 343.9092 0003646   2.4289 357.6969 15.30913604 93315","mean_motion":15.30913604,"eccentricity":0.0003646,"inclination_deg":97.3965,"raan_deg":343.9092,"arg_perigee_deg":2.4289,"mean_anomaly_deg":357.6969,"bstar":0.00025056,"rev_number":9331,"period_min":94.061480428258,"perigee_km":470.58724857955,"apogee_km":475.58315981085,"semimajor_km":6851.2222041952,"source":"CELESTRAK","updated_at":"2026-09-20T09:00:34.722829Z"}}